Change the Weather History Date:

Monday, May 20, 2013

  Actual Average Record
Temperature  
Mean Temperature 93 °F -  
Max Temperature 106 °F 102 °F 108 °F (2014)
Min Temperature 80 °F 78 °F 46 °F (2000)
Cooling Degree Days 28    
Growing Degree Days 43 (Base 50)    
Moisture  
Dew Point 41 °F    
Average Humidity 15    
Maximum Humidity 21    
Minimum Humidity 6    
Precipitation  
Precipitation 0.00 in 0.00 in - ()
Sea Level Pressure  
Sea Level Pressure 29.77 in    
Wind  
Wind Speed 8 mph ()    
Max Wind Speed 15 mph    
Max Gust Speed -    
Visibility 6.0 miles    
Events      
Averages and records for this station are not official NWS values.
T = Trace of Precipitation, MM = Missing Value Source: Averaged Metar Reports

Daily Weather History Graph

Daily Weather History Graph

Search for Another Location

Airport or City:

Trip Planner

Search our weather history database for the weather conditions in past years. The results will help you decide how hot, cold, wet, or windy it might be!

Date:

Astronomy

May. 20, 2013 Rise Set
Actual Time 5:04 AM EET 6:26 PM EET
Civil Twilight 4:39 AM EET 6:51 PM EET
Nautical Twilight 4:09 AM EET 7:20 PM EET
Astronomical Twilight 3:39 AM EET 7:51 PM EET
Moon 1:43 PM EET (5/20) 1:13 AM EET (5/20)
Length of Visible Light 14h 12m
Length of Day
13h 22m
Waxing Gibbous, 72% of the Moon is Illuminated
May 20
Waxing Gibbous
May 25
Full
May 31
Last Quarter
Jun 8
New
Jun 16
First Quarter

Hourly Weather History & Observations

Time (EET) Temp. Dew Point Humidity Pressure Visibility Wind Dir Wind Speed Gust Speed Precip Events Conditions
12:00 AM 89.6 °F 39.2 °F 17% 29.77 in - North 6.9 mph - N/A   Clear
1:00 AM 86.0 °F 39.2 °F 19% 29.77 in - NNE 6.9 mph - N/A   Clear
2:00 AM 87 °F 39 °F 10% 29.74 in 6 mi North 5.8 mph - -  
2:00 AM 86.0 °F 39.2 °F 19% 29.77 in - North 5.8 mph - N/A   Clear
3:00 AM 84.2 °F 39.2 °F 20% 29.77 in - North 4.6 mph - N/A   Clear
4:00 AM 82.4 °F 39.2 °F 21% 29.77 in - North 4.6 mph - N/A   Clear
5:00 AM 82.4 °F 37.4 °F 20% 29.80 in - North 3.5 mph - N/A   Clear
6:00 AM 84.2 °F 37.4 °F 19% 29.83 in - North 5.8 mph - N/A   Clear
7:00 AM 86.0 °F 41.0 °F 20% 29.83 in - NNW 8.1 mph - N/A   Clear
8:00 AM 92 °F 44 °F 11% 29.79 in 6 mi NNW 6.9 mph - -   Clear
8:00 AM 93.2 °F 44.6 °F 19% 29.83 in - NNW 6.9 mph - N/A   Clear
9:00 AM 96.8 °F 41.0 °F 15% 29.83 in - NNW 13.8 mph - N/A   Clear
10:00 AM 96.8 °F 41.0 °F 15% 29.83 in - North 11.5 mph - N/A   Clear
11:00 AM 98.6 °F 48.2 °F 18% 29.83 in - North 13.8 mph - N/A   Clear
12:00 PM 102.2 °F 39.2 °F 11% 29.77 in - NNW 12.7 mph - N/A   Clear
1:00 PM 105.8 °F 48.2 °F 14% 29.77 in - NNW 11.5 mph - N/A   Clear
2:00 PM 106 °F 44 °F 6% 29.69 in 6 mi WNW 13.8 mph - -  
2:00 PM 105.8 °F 44.6 °F 13% 29.74 in - WNW 13.8 mph - N/A   Clear
3:00 PM 105.8 °F 44.6 °F 13% 29.71 in - WNW 12.7 mph - N/A   Clear
4:00 PM 104.0 °F 44.6 °F 13% 29.71 in - NNW 11.5 mph - N/A   Clear
5:00 PM 102.2 °F 42.8 °F 13% 29.71 in - NNW 13.8 mph - N/A   Clear
6:00 PM 100.4 °F 42.8 °F 14% 29.71 in - North 13.8 mph - N/A   Clear
7:00 PM 98.6 °F 42.8 °F 15% 29.74 in - NNW 10.4 mph - N/A   Clear
8:00 PM 95.0 °F 37.4 °F 13% 29.77 in - NNW 13.8 mph - N/A   Clear
9:00 PM 91.4 °F 37.4 °F 15% 29.77 in - NW 13.8 mph - N/A   Clear
10:00 PM 89.6 °F 39.2 °F 17% 29.80 in - NNW 15.0 mph - N/A   Clear
11:00 PM 87.8 °F 39.2 °F 18% 29.80 in - NNW 11.5 mph - N/A   Clear